Content
SEND FEEDBACK

Daily
Averages
Monthly
Summary
United States of America

LAKE PLACID, NEW YORK


Home > North America > United States > New York
Elevation: 1984 feet     Latitude: 44 15N     Longitude: 073 59W

WEATHER
 
SELECT A DAY
Number of Records: 224,944;   Date Range: 1/1/95 - 8/30/14
 
SHARE

PRINT THIS DATA

[ ← Previous Day ]
WEATHER ALMANAC - JULY 11, 2013
[ Next Day → ]
[ °C ]   °F
Weather ElementAverageHighLow
Temperature65 °F73 °F (2:51 pm)52 °F (11:51 pm)
Dewpoint60.1 °F68 °F (12:31 am)51.1 °F (11:51 pm)
Humidity85.6 %100 % (1:35 am)53 % (3:51 pm)
Barometer29.87 in30.06 in (11:51 pm)29.77 in (2:51 am)
Wind Speed4.1 mph13.8 mph (12:51 am)
Wind Gust25.3 mph (4:51 pm)
Weather ElementAverage
Visibility8.2 mi
Wind DirectionESE (96.3 °)

Weather ElementTotal
Precipitation1.91 in
Heating Degree Days2.5 (Base 65)
Growing Degree Days12.5 (Base 50)
Averaged from 49 records on July 11, 2013
WEATHER CONDITIONS BREAKOUT
WIND DIRECTION BREAKOUT
WEATHER BY HOUR - JULY 11, 2013
[ °C ]   °F
Local TimeTemperatureDewpointHumidityBarometerVisibilityWind DirectionWind SpeedGust SpeedPrecipitationEventsConditions
12:31 AM69.8 °F68.0 °F94 %29.79 in4.0 miSW (220°)6.9 mph0.02 inRain-ThunderstormLight Rain
12:51 AM68.0 °F64.9 °F90 %29.79 in4.0 miWSW (240°)13.8 mph23.0 mph0.06 inRain-ThunderstormHeavy Thunderstorms and Rain
1:01 AM66.2 °F64.4 °F94 %29.80 in3.0 miSW (230°)10.4 mph0.04 inRain-ThunderstormHeavy Thunderstorms and Rain
1:11 AM66.2 °F64.4 °F94 %29.79 in2.5 miSW (230°)8.1 mph17.3 mph0.10 inRain-ThunderstormThunderstorms and Rain
1:27 AM66.2 °F64.4 °F94 %29.80 in3.0 miWSW (240°)5.8 mph17.3 mph0.16 inRain-ThunderstormThunderstorms and Rain
1:35 AM64.4 °F64.4 °F100 %29.80 in1.8 miWest (260°)4.6 mph0.22 inRain-ThunderstormHeavy Thunderstorms and Rain
1:51 AM64.9 °F64.0 °F97 %29.79 in1.0 miWest (260°)9.2 mph0.49 inRain-ThunderstormHeavy Rain
2:06 AM64.4 °F64.4 °F100 %29.79 in3.0 miCalm0.13 inRain-ThunderstormThunderstorms and Rain
2:17 AM64.4 °F62.6 °F94 %29.79 in5.0 miSSW (210°)9.2 mph0.14 inRain-ThunderstormLight Rain
2:38 AM64.4 °F62.6 °F94 %29.78 in6.0 miCalm0.16 inRainLight Rain
2:51 AM64.0 °F63.0 °F96 %29.77 in10.0 miCalm0.16 inMostly Cloudy
2:59 AM64.4 °F62.6 °F94 %29.81 in1.8 miCalm0.05 inRainLight Rain
3:07 AM64.4 °F62.6 °F94 %29.81 in2.0 miCalm0.06 inRainLight Rain
3:14 AM64.4 °F62.6 °F94 %29.81 in10.0 miCalm0.06 inRainLight Rain
3:51 AM64.0 °F64.0 °F100 %29.78 in10.0 miCalm0.06 inOvercast
4:07 AM64.4 °F64.4 °F100 %29.81 in8.0 miCalm0.00 inRainLight Rain
4:51 AM64.9 °F63.0 °F93 %29.79 in10.0 miWSW (250°)3.5 mph0.00 inOvercast
5:02 AM64.4 °F62.6 °F94 %29.81 in10.0 miWSW (240°)3.5 mphMostly Cloudy
5:51 AM63.0 °F62.1 °F97 %29.81 in8.0 miCalmPartly Cloudy
6:33 AM62.6 °F60.8 °F94 %29.85 in10.0 miWNW (300°)3.5 mphMostly Cloudy
6:51 AM63.0 °F61.0 °F93 %29.83 in10.0 miCalmOvercast
7:10 AM62.6 °F60.8 °F94 %29.87 in10.0 miVariable4.6 mphOvercast
7:19 AM62.6 °F60.8 °F94 %29.87 in10.0 miVariable4.6 mphOvercast
7:48 AM62.6 °F60.8 °F94 %29.88 in10.0 miVariable4.6 mphScattered Clouds
7:51 AM63.0 °F61.0 °F93 %29.86 in10.0 miVariable5.8 mphScattered Clouds
8:01 AM62.6 °F60.8 °F94 %29.88 in10.0 miCalmMostly Cloudy
8:10 AM62.6 °F60.8 °F94 %29.89 in10.0 miCalmMostly Cloudy
8:14 AM62.6 °F60.8 °F94 %29.89 in10.0 miVariable5.8 mphMostly Cloudy
8:32 AM64.4 °F60.8 °F88 %29.89 in10.0 miVariable3.5 mphMostly Cloudy
8:51 AM64.9 °F60.1 °F84 %29.88 in10.0 miVariable3.5 mphMostly Cloudy
9:00 AM64.4 °F59.0 °F83 %29.90 in10.0 miVariable3.5 mphOvercast
9:21 AM66.2 °F60.8 °F83 %29.90 in10.0 miVariable3.5 mphMostly Cloudy
9:51 AM68.0 °F60.1 °F76 %29.89 in10.0 miVariable5.8 mphMostly Cloudy
9:58 AM66.2 °F59.0 °F78 %29.91 in10.0 miNorth (350°)8.1 mphMostly Cloudy
10:11 AM69.8 °F60.8 °F73 %29.91 in10.0 miVariable5.8 mphScattered Clouds
10:51 AM69.1 °F59.0 °F70 %29.89 in10.0 miVariable6.9 mphPartly Cloudy
11:51 AM69.1 °F59.0 °F70 %29.90 in10.0 miVariable5.8 mphMostly Cloudy
12:51 PM69.1 °F57.9 °F68 %29.91 in10.0 miNNW (340°)8.1 mphMostly Cloudy
1:51 PM69.1 °F54.0 °F58 %29.92 in10.0 miNNW (340°)8.1 mphMostly Cloudy
2:51 PM73.0 °F55.9 °F55 %29.93 in10.0 miVariable5.8 mphScattered Clouds
3:51 PM72.0 °F54.0 °F53 %29.94 in10.0 miVariable6.9 mphClear
4:51 PM71.1 °F53.1 °F53 %29.95 in10.0 miNW (310°)6.9 mph25.3 mphPartly Cloudy
5:51 PM69.1 °F53.1 °F57 %29.96 in10.0 miVariable4.6 mphScattered Clouds
6:51 PM70.0 °F53.1 °F55 %29.97 in10.0 miNorth (350°)6.9 mphClear
7:51 PM68.0 °F54.0 °F61 %29.99 in10.0 miNorth (350°)3.5 mphClear
8:51 PM60.1 °F55.0 °F83 %30.01 in10.0 miCalmClear
9:51 PM55.9 °F55.0 °F97 %30.04 in10.0 miCalmClear
10:51 PM54.0 °F53.1 °F97 %30.05 in10.0 miCalmClear
11:51 PM52.0 °F51.1 °F97 %30.06 in10.0 miCalmClear
Hourly data recorded from KSLK, located miles away from Lake Placid, New York







STORIES FROM OUR PARTNERS